#timestamp,LO_Frequency,Hit,StdDev 
1560747615.0,286047003.9,N
1560747615.9,286047003.9,N
1560747635.8,286047004.2,N
1560747655.6,286047003.8,N
1560747675.4,286047001.8,N
1560747695.3,286047001.8,N
1560747715.1,286047000.1,N
1560747716.0,286047000.1,N
1560747735.8,286047002.8,N
1560747755.7,286047002.4,N
1560747775.5,286047001.8,N
1560747795.3,286047003.9,N
1560747815.2,286047004.0,N
1560747835.9,286047004.0,N
1560747855.7,286047004.9,N
1560747875.6,286047007.2,Y
1560747895.4,286047003.6,P
1560747915.2,286046999.9,N
1560747935.1,286046998.6,N
1560747936.0,286046998.6,N
1560747955.8,286047001.1,N
1560747975.6,286046998.2,N
1560747995.5,286046998.9,N
1560748015.3,286046999.4,N
1560748035.1,286046999.0,N
1560748055.9,286046999.2,N
1560748075.7,286046999.2,N
1560748095.5,286046996.5,N
1560748115.4,286046999.3,N
1560748135.2,286046998.5,N
1560748155.0,286047000.8,N
1560748155.9,286047000.8,N
1560748175.8,286047000.5,N
1560748195.6,286046998.2,N
1560748215.4,286047000.6,N
1560748235.3,286047002.3,N
1560748255.1,286047000.8,N
1560748275.8,286046998.2,N
1560748295.7,286047001.1,N
1560748315.5,286046998.2,N
1560748335.3,286046996.9,N
1560748355.2,286046999.4,N
1560748375.0,286046996.9,N
1560748375.9,286046996.9,N
1560748395.7,286046999.2,N
1560748415.6,286046999.3,N
1560748435.4,286046999.4,N
1560748455.2,286047000.8,N
1560748475.1,286046999.8,N
1560748476.0,286046999.8,N
1560748495.8,286047001.9,N
1560748515.6,286047001.7,N
1560748535.5,286047003.2,N
1560748555.3,286047003.0,N
1560748575.1,286047003.7,N
1560748595.9,286047003.9,N
1560748615.7,286047002.5,N
1560748635.5,286047001.3,N
1560748655.4,286047001.3,N
1560748675.2,286047002.0,N
1560748695.0,286047001.5,N
1560748696.0,286047001.5,N
1560748715.8,286047001.8,N
1560748735.6,286047002.0,N
1560748755.5,286047002.5,N
1560748775.3,286047000.6,N
1560748795.1,286047000.6,N
1560748815.9,286046998.5,N
1560748835.7,286047002.3,N
1560748855.5,286047002.8,N
1560748875.4,286047002.3,N
1560748895.2,286047000.4,N
1560748915.0,286047002.0,N
1560748915.9,286047002.0,N
1560748935.8,286047001.6,N
1560748955.6,286047000.1,N
1560748975.4,286047000.2,N
1560748995.3,286047001.9,N
1560749015.1,286046999.7,N
1560749016.0,286046999.7,N
1560749035.8,286047000.4,N
1560749055.7,286046999.8,N
1560749075.5,286047000.9,N
1560749095.3,286047003.5,N
1560749115.2,286047003.1,N
1560749135.9,286047003.6,N
1560749155.7,286047005.9,Y
1560749175.6,286047003.8,P
1560749195.4,286046999.9,N
1560749215.2,286046999.8,N
1560749235.1,286047000.4,N
1560749236.0,286047000.4,N
1560749255.8,286047002.6,N
1560749275.6,286047002.2,N
1560749295.5,286046999.9,N
1560749315.3,286047000.5,N
1560749335.1,286046996.9,N
1560749355.9,286046999.9,N
1560749375.7,286046997.1,N
1560749395.5,286046996.7,N
1560749415.4,286046999.5,N
1560749435.2,286046999.3,N
1560749455.0,286046999.4,N
1560749455.9,286046999.4,N
1560749475.8,286047000.9,N
1560749495.6,286047000.0,N
1560749515.4,286047005.9,Y
1560749535.3,286047003.8,P
1560749555.1,286047000.6,N
1560749575.8,286046997.4,N
1560749595.7,286046997.3,N
1560749615.5,286046997.1,N
1560749635.3,286046999.1,N
1560749655.2,286046997.8,N
1560749675.0,286046995.2,N
1560749675.9,286046995.2,N
1560749695.7,286046995.0,N
1560749715.6,286046995.3,N
1560749735.4,286046997.9,N
1560749755.2,286046996.8,N
1560749775.1,286046999.1,N
1560749776.0,286046999.1,N
1560749795.8,286046999.2,N
1560749815.6,286047000.8,N
1560749835.5,286047002.8,N
1560749855.3,286047003.9,N
1560749875.1,286047006.0,N
1560749895.9,286047005.5,N
1560749915.7,286047007.2,N
1560749935.6,286047007.5,N
1560749955.4,286047006.3,N
1560749975.2,286047008.4,N
1560749995.0,286047008.1,N
1560749996.0,286047008.1,N
1560750015.8,286047010.1,N
1560750035.6,286047009.7,N
1560750055.5,286047012.3,N
1560750075.3,286047011.9,N
1560750095.1,286047012.3,N
1560750115.9,286047012.0,N
1560750135.7,286047011.1,N
1560750155.5,286047011.4,N
1560750175.4,286047012.2,N
1560750195.2,286047009.3,N
1560750215.0,286047011.9,N
1560750215.9,286047011.9,N
1560750235.8,286047011.7,N
1560750255.6,286047012.4,N
1560750275.4,286047011.8,N
1560750295.2,286047014.0,N
1560750315.1,286047012.6,N
1560750316.0,286047012.6,Y
1560750335.8,286047004.5,P
1560750355.7,286047008.9,P
1560750375.5,286047007.8,P
1560750395.3,286047010.6,Y
1560750415.2,286047002.3,P
1560750435.9,286047002.5,N
1560750455.7,286047002.6,N
1560750475.6,286047001.7,N
1560750495.4,286047003.8,N
1560750515.2,286047005.3,N
1560750535.1,286047005.8,Y
1560750536.0,286047005.8,P
1560750555.8,286047002.6,N
1560750575.6,286047001.9,N
1560750595.5,286047003.1,N
1560750615.3,286047005.9,Y
1560750635.1,286047000.2,P
1560750655.9,286047002.4,N
1560750675.7,286046999.7,N
1560750695.5,286047000.9,N
1560750715.4,286047000.5,N
1560750735.2,286046999.8,N
1560750755.0,286047001.0,N
1560750755.9,286047001.0,N
1560750775.8,286047002.2,N
1560750795.6,286047004.2,Y
1560750815.4,286047002.3,P
1560750835.3,286046999.8,N
1560750855.1,286047004.2,P
1560750856.0,286047004.2,N
1560750875.8,286047003.4,N
1560750895.7,286047005.2,Y
1560750915.5,286047004.2,P
1560750935.3,286047001.4,N
1560750955.2,286047001.7,N
1560750975.9,286047004.1,Y
1560750995.7,286047000.0,P
1560751015.6,286046999.9,N
1560751035.4,286047004.4,P
1560751055.2,286047011.9,Y
1560751075.1,286047002.2,P
1560751076.0,286047002.2,P
1560751095.8,286047002.7,P
1560751115.6,286047004.3,Y
1560751135.5,286047000.2,P
1560751155.3,286047001.6,N
1560751175.1,286047001.9,N
1560751195.9,286047003.9,Y
